When you browse on this site, cookies collect data to enhance your experience and personalize the content and advertising you see.
Visit our Privacy Policy to learn more. By continuing to use the site, you agree to this use of cookies and data.
  • în România
  • Lista ţărilor
  • Pe 7 zile
  • Temperatura apei
  • Meteo pe hartă
  • Widget-uri
  • user-avatar
    Intrare

    Meteo pe oră la Carlisle

    Astăzi, 10 Decembrie, Marţi

    Timp Temperatura Precipitaţii Vânt Presiune Umiditate
    00:00 +1°C° 0 mm 4 m/s 760 mmHg 90%
    01:00 +2°C° 0 mm 5 m/s 759 mmHg 90%
    02:00 +2°C° 0 mm 5 m/s 758 mmHg 89%
    03:00 +3°C° 0 mm 6 m/s 757 mmHg 89%
    04:00 +3°C° 0.2 mm 6 m/s 755 mmHg 89%
    05:00 +3°C° 0.2 mm 7 m/s 753 mmHg 89%
    06:00 +4°C° 0.2 mm 8 m/s 752 mmHg 89%
    07:00 +4°C° 1 mm 8 m/s 750 mmHg 90%
    08:00 +5°C° 1 mm 9 m/s 748 mmHg 91%
    09:00 +5°C° 1 mm 9 m/s 747 mmHg 91%
    10:00 +6°C° 1.5 mm 10 m/s 745 mmHg 91%
    11:00 +7°C° 1.5 mm 11 m/s 743 mmHg 91%
    12:00 +8°C° 1.5 mm 12 m/s 742 mmHg 92%
    13:00 +9°C° 1.8 mm 13 m/s 740 mmHg 91%
    14:00 +10°C° 1.8 mm 14 m/s 738 mmHg 91%
    15:00 +10°C° 1.8 mm 15 m/s 737 mmHg 91%
    16:00 +8°C° 1.9 mm 13 m/s 738 mmHg 91%
    17:00 +5°C° 1.9 mm 12 m/s 739 mmHg 92%
    18:00 +3°C° 1.9 mm 10 m/s 740 mmHg 92%
    19:00 +3°C° 0.4 mm 10 m/s 741 mmHg 87%
    20:00 +3°C° 0.4 mm 10 m/s 742 mmHg 82%
    21:00 +3°C° 0.4 mm 9 m/s 743 mmHg 77%
    22:00 +2°C° 0.1 mm 9 m/s 744 mmHg 76%
    23:00 +2°C° 0.1 mm 8 m/s 745 mmHg 75%

    Mâine, 11 Decembrie, Miercuri

    Timp Temperatura Precipitaţii Vânt Presiune Umiditate
    00:00 +2°C° 0.1 mm 8 m/s 745 mmHg 73%
    01:00 +3°C° 0 mm 7 m/s 746 mmHg 75%
    02:00 +2°C° 0 mm 7 m/s 746 mmHg 77%
    03:00 +2°C° 0 mm 7 m/s 746 mmHg 79%
    04:00 +2°C° 0.1 mm 7 m/s 746 mmHg 79%
    05:00 +2°C° 0.1 mm 7 m/s 745 mmHg 79%
    06:00 +2°C° 0.1 mm 7 m/s 745 mmHg 79%
    07:00 +2°C° 0.3 mm 7 m/s 745 mmHg 80%
    08:00 +2°C° 0.3 mm 6 m/s 744 mmHg 81%
    09:00 +2°C° 0.3 mm 6 m/s 744 mmHg 82%
    10:00 +2°C° 0.1 mm 6 m/s 744 mmHg 81%
    11:00 +3°C° 0.1 mm 6 m/s 744 mmHg 80%
    12:00 +3°C° 0.1 mm 6 m/s 744 mmHg 79%
    13:00 +3°C° 0.1 mm 5 m/s 744 mmHg 80%
    14:00 +2°C° 0.1 mm 5 m/s 744 mmHg 81%
    15:00 +2°C° 0.1 mm 5 m/s 743 mmHg 82%
    16:00 +3°C° 0 mm 4 m/s 744 mmHg 82%
    17:00 +1°C° 0 mm 4 m/s 744 mmHg 82%
    18:00 +1°C° 0 mm 4 m/s 744 mmHg 82%
    19:00 +1°C° 0.1 mm 4 m/s 745 mmHg 83%
    20:00 +1°C° 0.1 mm 4 m/s 745 mmHg 84%
    21:00 +1°C° 0.1 mm 4 m/s 745 mmHg 84%
    22:00 +1°C° 0.1 mm 4 m/s 745 mmHg 85%
    23:00 +1°C° 0.1 mm 5 m/s 745 mmHg 85%

    Poimâine, 12 Decembrie, Joi

    Timp Temperatura Precipitaţii Vânt Presiune Umiditate
    00:00 +1°C° 0.1 mm 5 m/s 745 mmHg 85%
    01:00 +1°C° 0.1 mm 4 m/s 745 mmHg 86%
    02:00 0°C° 0.1 mm 4 m/s 744 mmHg 87%
    03:00 0°C° 0.1 mm 4 m/s 744 mmHg 88%
    04:00 0°C° 0 mm 4 m/s 743 mmHg 87%
    05:00 0°C° 0 mm 4 m/s 743 mmHg 87%
    06:00 0°C° 0 mm 4 m/s 742 mmHg 86%
    07:00 0°C° 0 mm 4 m/s 741 mmHg 87%
    08:00 0°C° 0 mm 4 m/s 740 mmHg 87%
    09:00 +1°C° 0 mm 4 m/s 739 mmHg 88%
    10:00 +1°C° 0.1 mm 4 m/s 737 mmHg 87%
    11:00 +1°C° 0.1 mm 5 m/s 736 mmHg 87%
    12:00 +2°C° 0.1 mm 5 m/s 734 mmHg 86%
    13:00 +2°C° 1.2 mm 5 m/s 733 mmHg 89%
    14:00 +3°C° 1.2 mm 4 m/s 731 mmHg 92%
    15:00 +3°C° 1.2 mm 4 m/s 729 mmHg 95%
    16:00 +3°C° 0.2 mm 4 m/s 728 mmHg 95%
    17:00 +3°C° 0.2 mm 4 m/s 726 mmHg 94%
    18:00 +3°C° 0.2 mm 3 m/s 725 mmHg 94%
    19:00 +3°C° 0 mm 3 m/s 724 mmHg 94%
    20:00 +3°C° 0 mm 3 m/s 724 mmHg 94%
    21:00 +4°C° 0 mm 2 m/s 723 mmHg 95%
    22:00 +4°C° 0 mm 2 m/s 723 mmHg 95%
    23:00 +4°C° 0 mm 2 m/s 723 mmHg 95%

    13 Decembrie, Vineri

    Timp Temperatura Precipitaţii Vânt Presiune Umiditate
    00:00 +4°C° 0 mm 2 m/s 723 mmHg 96%
    01:00 +4°C° 0.1 mm 2 m/s 724 mmHg 96%
    02:00 +5°C° 0.1 mm 2 m/s 724 mmHg 96%
    03:00 +5°C° 0.1 mm 2 m/s 725 mmHg 96%
    04:00 +5°C° 0.4 mm 2 m/s 725 mmHg 96%
    05:00 +5°C° 0.4 mm 2 m/s 726 mmHg 96%
    06:00 +5°C° 0.4 mm 2 m/s 727 mmHg 95%
    07:00 +5°C° 0.7 mm 2 m/s 728 mmHg 96%
    08:00 +5°C° 0.7 mm 2 m/s 728 mmHg 96%
    09:00 +5°C° 0.7 mm 2 m/s 729 mmHg 96%
    10:00 +5°C° 0.1 mm 2 m/s 730 mmHg 95%
    11:00 +6°C° 0.1 mm 1 m/s 731 mmHg 93%
    12:00 +7°C° 0.1 mm 1 m/s 732 mmHg 92%
    13:00 +6°C° 0.1 mm 1 m/s 732 mmHg 93%
    14:00 +6°C° 0.1 mm 1 m/s 732 mmHg 93%
    15:00 +6°C° 0.1 mm 1 m/s 733 mmHg 94%
    16:00 +6°C° 0 mm 1 m/s 733 mmHg 94%
    17:00 +6°C° 0 mm 1 m/s 732 mmHg 94%
    18:00 +5°C° 0 mm 1 m/s 732 mmHg 94%
    19:00 +5°C° 0.2 mm 2 m/s 732 mmHg 94%
    20:00 +4°C° 0.2 mm 3 m/s 732 mmHg 94%
    21:00 +4°C° 0.2 mm 3 m/s 732 mmHg 94%
    22:00 +3°C° 0.1 mm 3 m/s 730 mmHg 94%
    23:00 +4°C° 0.1 mm 2 m/s 729 mmHg 94%

    14 Decembrie, Sâmbătă

    Timp Temperatura Precipitaţii Vânt Presiune Umiditate
    00:00 +4°C° 0.1 mm 2 m/s 728 mmHg 94%
    01:00 +4°C° 0.4 mm 2 m/s 727 mmHg 95%
    02:00 +5°C° 0.4 mm 1 m/s 727 mmHg 95%
    03:00 +5°C° 0.4 mm 1 m/s 726 mmHg 96%
    04:00 +3°C° 1.3 mm 2 m/s 726 mmHg 97%
    05:00 +2°C° 1.3 mm 3 m/s 726 mmHg 97%
    06:00 +1°C° 1.3 mm 5 m/s 727 mmHg 97%
    07:00 +1°C° 0.6 mm 6 m/s 727 mmHg 94%
    08:00 0°C° 0.6 mm 7 m/s 727 mmHg 90%
    09:00 0°C° 0.6 mm 9 m/s 728 mmHg 86%
    10:00 +1°C° 0.2 mm 9 m/s 728 mmHg 84%
    11:00 +1°C° 0.2 mm 10 m/s 728 mmHg 81%
    12:00 +1°C° 0.2 mm 10 m/s 729 mmHg 79%
    13:00 +1°C° 0.6 mm 10 m/s 729 mmHg 80%
    14:00 +1°C° 0.6 mm 10 m/s 730 mmHg 80%
    15:00 +1°C° 0.6 mm 10 m/s 730 mmHg 81%
    16:00 +1°C° 0.3 mm 10 m/s 731 mmHg 80%
    17:00 0°C° 0.3 mm 10 m/s 732 mmHg 80%
    18:00 0°C° 0.3 mm 10 m/s 732 mmHg 79%
    19:00 0°C° 0.1 mm 9 m/s 733 mmHg 78%
    20:00 -1°C° 0.1 mm 8 m/s 734 mmHg 76%
    21:00 -1°C° 0.1 mm 8 m/s 734 mmHg 75%
    22:00 -1°C° 0.1 mm 7 m/s 734 mmHg 76%
    23:00 -1°C° 0.1 mm 7 m/s 735 mmHg 76%

    15 Decembrie, Duminică

    Timp Temperatura Precipitaţii Vânt Presiune Umiditate
    00:00 -2°C° 0.1 mm 6 m/s 735 mmHg 77%
    01:00 -1°C° 0 mm 5 m/s 734 mmHg 79%
    02:00 -1°C° 0 mm 4 m/s 734 mmHg 80%
    03:00 0°C° 0 mm 3 m/s 734 mmHg 81%
    04:00 0°C° 0 mm 3 m/s 734 mmHg 82%
    05:00 +1°C° 0 mm 2 m/s 733 mmHg 82%
    06:00 +1°C° 0 mm 2 m/s 733 mmHg 83%
    07:00 +1°C° 0 mm 2 m/s 734 mmHg 84%
    08:00 0°C° 0 mm 3 m/s 734 mmHg 86%
    09:00 -1°C° 0 mm 3 m/s 734 mmHg 87%
    10:00 -1°C° 0 mm 4 m/s 735 mmHg 84%
    11:00 0°C° 0 mm 5 m/s 735 mmHg 81%
    12:00 +1°C° 0 mm 5 m/s 736 mmHg 78%
    13:00 +1°C° 0.1 mm 6 m/s 736 mmHg 82%
    14:00 +1°C° 0.1 mm 6 m/s 736 mmHg 85%
    15:00 +1°C° 0.1 mm 6 m/s 736 mmHg 88%
    16:00 +2°C° 0.3 mm 7 m/s 737 mmHg 86%
    17:00 +2°C° 0.3 mm 7 m/s 737 mmHg 84%
    18:00 +1°C° 0.3 mm 8 m/s 738 mmHg 82%
    19:00 +1°C° 0.2 mm 8 m/s 738 mmHg 80%
    20:00 +1°C° 0.2 mm 8 m/s 739 mmHg 78%
    21:00 +1°C° 0.2 mm 8 m/s 740 mmHg 76%
    22:00 0°C° 0 mm 8 m/s 740 mmHg 76%
    23:00 0°C° 0 mm 7 m/s 741 mmHg 76%
    Arată mai mult